CAPE
4848 4103 4189 3453 2785 3005 2443 2302 1243 389 15 626 2499 2274 2397 1837 1712 1821 2198 1846 1537 1630
4796 4359 4196 4248 4163 3763 3514 2263 2306 1230 903 852 2510 2258 2265 1815 1615 1402 1957 1901 2297 2442
4259 4392 4241 4363 4015 3610 2699 2879 2939 3090 2902 2325 2061 2780 2425 2468 2461 1722 1811 1615 1884 2070
3690 3638 4101 3840 3301 2965 3404 3379 3332 3359 3502 3469 2991 2292 2437 1840 2123 2447 1970 1771 1781 1797
3151 2447 2404 2619 2780 3480 2456 2242 2319 2854 3712 3209 2737 3064 2531 2365 2329 1706 1810 2046 1673 1595
2176 2078 1483 1360 1617 2127 1876 2207 1649 2015 2193 2604 3239 3025 2628 2262 2373 2381 1708 1956 2282 1934
1686 1676 1528 1899 1893 1753 2331 2189 2087 2010 2183 1704 1581 1514 2166 2849 2181 1877 1903 1766 1683 1959
1991 2100 2069 2072 1999 1865 1923 1574 1794 1480 1627 1478 1072 405 1106 2166 2645 2054 1755 1526 1451 1354
1889 2025 2076 2095 1953 1945 1551 1239 1413 1428 1183 1084 524 339 170 316 871 1365 1358 1806 1637 1157
1520 1604 1778 1663 1606 1565 1455 1473 1272 1061 1159 902 831 382 232 84 478 886 972 1312 1822 1644
1590 1558 1662 1742 1471 1424 1240 1107 1100 1133 1067 978 792 361 282 172 209 785 1112 1018 1291 1022
1732 1601 1420 1063 1010 916 737 737 847 968 1015 903 823 497 344 166 433 428 608 672 974 1174
989 921 665 599 412 236 271 360 511 571 591 506 593 449 199 90 114 61 65 252 723 585
735 686 486 300 277 305 318 327 408 600 676 660 407 338 101 79 26 73 90 204 262 452
CIN
-1 -0 -3 -11 -27 -18 -59 -52 -83 -97 -345 -38 -19 -22 -22 -41 -44 -14 -14 -22 -42 -28
-0 -3 -0 -1 -2 -2 -2 -4 -22 -47 -35 -30 -19 -23 -20 -31 -32 -47 -30 -38 -18 -10
-10 -5 -3 -1 -1 -0 -6 -1 -1 -3 -7 -19 -16 -10 -11 -2 -9 -31 -49 -16 -29 -21
-3 -1 -4 -0 -1 -8 -1 -0 -1 -1 -1 -1 -8 -18 -11 -33 -14 -8 -28 -27 -38 -27
-0 -2 -0 -14 -16 -8 -1 -2 -3 -2 -2 -8 -11 -4 -7 -6 -7 -20 -14 -8 -29 -38
-6 -8 -5 -8 -11 -7 -6 -2 -1 -3 -6 -4 -2 -6 -15 -16 -5 -5 -19 -12 -5 -19
-6 -5 -17 -31 -33 -26 -7 -4 -3 -4 -3 -9 -10 -8 -5 -11 -21 -12 -6 -15 -20 -10
-4 -4 -7 -10 -8 -5 -5 -4 -6 -8 -5 -5 -3 -27 -20 -8 -4 -8 -7 -12 -27 -29
-2 -1 -0 -0 -1 -1 -2 -10 -3 -3 -8 -4 -0 -10 -45 -97 -14 -5 -4 -1 -5 -28
-1 -1 -1 -1 -1 -1 -2 -2 -3 -3 -2 -3 -7 -9 -25 -88 -19 -4 -3 -1 -0 -0
-1 -1 -1 -2 -2 -3 -3 -4 -4 -3 -5 -4 -3 -14 -24 -42 -56 -8 -3 -2 -0 -4
-2 -1 -1 -1 -1 -2 -3 -3 -4 -3 -4 -5 -5 -2 -8 -33 -8 -1 -5 -3 -3 -1
-2 -1 -1 -2 -3 -8 -3 -2 -0 -1 -4 -5 -7 -3 -33 -33 -42 -47 -52 -11 -10 -6
-1 -1 -4 -5 -6 -4 -2 -4 -1 -1 -2 -2 -8 -12 -62 -121 -84 -66 -66 -16 -10 -4
Wind_Speed
19 13 12 13 10 8 7 13 21 13 nan 8 13 16 15 12 10 10 11 11 9 9
15 13 7 7 11 11 10 8 8 23 31 26 16 16 17 13 13 10 14 12 12 10
21 19 13 13 13 13 12 13 11 9 14 15 18 19 16 16 15 15 13 13 13 12
24 20 20 17 18 17 16 17 18 15 13 15 15 16 15 16 16 16 13 11 8 15
28 24 21 25 20 20 24 23 21 19 21 20 17 15 13 13 16 12 15 14 10 10
32 28 26 29 28 28 27 26 26 24 22 22 20 17 18 15 12 9 13 15 16 13
36 34 34 33 31 29 29 29 29 27 27 25 22 21 19 20 19 13 11 10 14 16
39 39 38 36 33 32 32 31 31 29 27 27 27 24 27 28 28 26 20 16 12 13
44 43 41 39 37 36 34 32 30 30 31 29 25 25 26 30 29 29 28 25 23 20
44 43 43 41 40 39 37 34 31 30 30 27 26 27 27 nan 34 33 32 31 30 28
45 44 44 46 44 40 38 36 33 32 33 32 30 29 28 35 39 34 33 35 36 34
44 44 43 43 43 41 38 35 36 36 35 35 32 29 30 34 37 33 29 29 34 37
43 42 42 42 42 42 42 41 42 39 39 36 33 32 30 nan 35 nan nan 25 26 32
47 47 47 46 48 48 49 48 46 45 44 42 39 36 31 nan nan nan nan 28 27 29
Wind_Direction
351 353 348 2 8 357 340 315 343 299 nan 167 314 324 326 314 295 322 342 357 357 341
328 324 313 305 325 340 323 338 326 334 350 29 339 326 322 320 327 342 327 340 339 341
325 314 306 301 301 293 308 326 330 328 310 309 328 348 326 315 308 314 316 327 345 335
297 305 307 299 295 307 309 306 314 311 309 321 327 330 342 333 323 315 311 308 309 325
303 292 298 302 299 301 291 286 287 293 308 315 314 310 313 329 340 328 318 317 316 289
296 300 288 271 268 273 276 282 285 285 284 286 295 299 305 308 314 333 327 317 307 306
284 282 277 273 271 268 270 273 272 276 285 283 282 285 285 299 296 297 298 309 316 311
288 287 286 286 283 279 277 276 273 275 277 277 282 280 277 272 278 278 272 270 267 275
282 283 284 285 284 282 281 279 277 275 273 274 276 276 271 277 269 267 268 266 265 260
283 285 286 286 284 283 280 276 277 279 279 272 278 283 283 nan 276 271 266 261 261 261
284 285 286 283 280 277 275 275 275 280 285 280 279 288 293 286 280 272 265 262 260 258
282 280 275 274 276 275 273 273 276 277 279 278 279 290 296 284 277 272 267 266 268 260
278 279 278 277 275 276 278 277 274 274 275 277 274 278 284 nan 272 nan nan 271 278 288
282 281 280 279 278 274 270 267 267 267 269 266 266 270 275 nan nan nan nan 271 272 281